Hourly Data Report for October 25, 2015

All times are specified in Local Standard Time (LST). Add 1 hour to adjust for Daylight Saving Time where and when it is observed.

QIKIQTARJUAQ A
NUNAVUT

67°32'48.000" N
64°01'54.000" W
5.50 m
2400577
YVM

Download Data

Hourly Data (October 2015)
Hourly Data Report for October 25, 2015
Temp Definition
°C
Dew Point Temp Definition
°C
Rel Hum Definition
%
Wind Dir Definition
10's deg

Wind Spd Definition
km/h
Visibility Definition
km
Stn Press Definition
kPa
Hmdx Definition


Wind Chill Definition


Weather Definition


TIME
00:00 Legend Double Dagger -4.3 -7.4 79 5 8 16.1 98.46   -8 LegendNANA
01:00 Legend Double Dagger -4.3 -7.8 77   0 16.1 98.40     LegendNANA
02:00 Legend Double Dagger -4.9 -7.8 80 14 5 16.1 98.36   -7 LegendNANA
03:00 Legend Double Dagger -4.0 -6.9 80   0 16.1 98.30     LegendNANA
04:00 Legend Double Dagger -3.7 -6.2 83 12 4 16.1 98.27   -5 LegendNANA
05:00 Legend Double Dagger -3.7 -6.5 81   0 16.1 98.24     LegendNANA
06:00 Legend Double Dagger -3.6 -6.3 82 11 5 16.1 98.23   -6 LegendNANA
07:00 Legend Double Dagger -3.2 -5.5 84 6 5 16.1 98.23   -5 LegendNANA
08:00 Legend Double Dagger -3.2 -4.9 88 5 8 16.1 98.22   -6 LegendNANA
09:00 Legend Double Dagger -3.4 -5.4 86 6 8 16.1 98.21   -7 LegendNANA
10:00 Legend Double Dagger -3.2 -5.2 86 5 11 16.1 98.21   -7 LegendNANA
11:00 Legend Double Dagger -2.5 -5.2 82 2 9 16.1 98.20   -6 LegendNANA
12:00 Legend Double Dagger -3.1 -5.3 85 3 8 16.1 98.19   -6 LegendNANA
13:00 Legend Double Dagger -2.9 -5.4 83 6 11 16.1 98.19   -7 LegendNANA
14:00 Legend Double Dagger -3.0 -5.0 86 4 8 16.1 98.22   -6 LegendNANA
15:00 Legend Double Dagger -2.7 -4.8 85 3 17 16.1 98.25   -8 Snow
16:00 Legend Double Dagger -3.1 -4.5 90 2 30 12.9 98.29   -11 Snow
17:00 Legend Double Dagger -3.2 -4.8 89 2 32 16.1 98.35   -11 Snow
18:00 Legend Double Dagger -4.0 -5.6 89 2 32 4.8 98.38   -12 Snow
19:00 Legend Double Dagger -4.5 -6.2 88 3 35 4.0 98.42   -13 Snow
20:00 Legend Double Dagger -5.1 -7.2 85 2 34 4.8 98.46   -14 Snow
21:00 Legend Double Dagger -5.5 -8.6 79 3 34 8.1 98.49   -14 Snow
22:00 Legend Double Dagger -5.8 -8.3 82 2 34 9.7 98.50   -15 Snow
23:00 Legend Double Dagger -5.4 -8.4 80 2 28 16.1 98.51   -13 Snow

Notes on Data Quality.

Legend

  • E = Estimated
  • M = Missing
  • NA = Not Available
  • ‡ = Partner data that is not subject to review by the National Climate Archives
Date modified: